Regional Weather Roundup
Issued by NWS

Home | Current Version | Previous Version | Text Only | Print | Product List | Glossary Off
Versions: 1 2 3 4 5 6 7 8 9 10 11 12 13 14 15 16 17 18 19 20 21 22 23 24 25 26 27 28 29 30 31 32 33 34 35 36 37 38 39 40 41 42 43 44 45 46 47 48 49 50

000
ASUS43 KBIS 221902
RWRND

NORTH DAKOTA REGIONAL WEATHER ROUNDUP
NATIONAL WEATHER SERVICE BISMARCK ND
200 PM CDT THU JUN 22 2017

NOTE: "FAIR" INDICATES FEW OR NO CLOUDS BELOW 12,000 FEET WITH NO
SIGNIFICANT WEATHER AND/OR OBSTRUCTIONS TO VISIBILITY.


NDZ001>003-009>011-017-222000-
NORTHWEST NORTH DAKOTA

CITY           SKY/WX    TMP DP  RH WIND       PRES   REMARKS
WILLISTON      PTSUNNY   74  33  22 W31G45    29.83F
MINOT          PTSUNNY   73  34  23 W25G38    29.75F
MINOT AFB      MOSUNNY   70  35  27 W26G43    29.73F
$$

NDZ018>021-031>035-040>046-222000-
SOUTHWEST NORTH DAKOTA

CITY           SKY/WX    TMP DP  RH WIND       PRES   REMARKS
BISMARCK       MOSUNNY   77  35  21 W23       29.82F
DICKINSON      MOSUNNY   71  25  17 W25G32    29.86F
GARRISON         N/A     70  36  28 NW25G35   29.79F
HETTINGER ARPT MOSUNNY   75  32  20 NW21G30   29.91S
$$

NDZ004>008-012>016-024-026-027-054-222000-
NORTHEAST NORTH DAKOTA

CITY           SKY/WX    TMP DP  RH WIND       PRES   REMARKS
GRAND FORKS    PTSUNNY   76  44  32 W21G31    29.67S
GRND FRKS AFB  MOSUNNY   73  45  36 W15G29    29.68F
DEVILS LAKE    SUNNY     70  39  32 W24G32    29.72F
$$

NDZ022-023-025-028>030-036>039-047>053-222000-
SOUTHEAST NORTH DAKOTA

CITY           SKY/WX    TMP DP  RH WIND       PRES   REMARKS
FARGO          PTSUNNY   76  46  34 W17G24    29.70F
JAMESTOWN      SUNNY     75  42  30 W22G29    29.76S
$$





USA.gov is the U.S. government's official web portal to all federal, state and local government web resources and services.